Change the Weather History Date:

Monday, August 5, 2013

  Actual Average Record
Temperature  
Mean Temperature 63 °F 72 °F  
Max Temperature 74 °F 82 °F 89 °F (2002)
Min Temperature 51 °F 62 °F 46 °F (1951)
Degree Days  
Heating Degree Days 2 0  
Month to date heating degree days 3 0  
Since 1 June heating degree days 26 41  
Since 1 July heating degree days 5 3  
Cooling Degree Days 0    
Month to date cooling degree days 15  
Year to date cooling degree days 487  
Since 1 June cooling degree days 381  
Growing Degree Days 12 (Base 50)    
Moisture  
Dew Point 54 °F    
Average Humidity 73    
Maximum Humidity 100    
Minimum Humidity 46    
Precipitation  
Precipitation 0.00 in 0.10 in 1.24 in (1983)
Month to date precipitation 0.47 0.47  
Sea Level Pressure  
Sea Level Pressure 30.11 in    
Wind  
Wind Speed 2 mph (NE)    
Max Wind Speed 7 mph    
Max Gust Speed 33 mph    
Visibility 6 miles    
Events Fog    
T = Trace of Precipitation, MM = Missing Value Source: NWS Daily Summary

Daily Weather History Graph

Daily Weather History Graph

Search for Another Location

Airport or City:

Trip Planner

Search our weather history database for the weather conditions in past years. The results will help you decide how hot, cold, wet, or windy it might be!

Date:

Astronomy

Aug. 05, 2013 Rise Set
Actual Time 6:24 AM EDT 8:31 PM EDT
Civil Twilight 5:54 AM EDT 9:01 PM EDT
Nautical Twilight 5:17 AM EDT 9:38 PM EDT
Astronomical Twilight 4:37 AM EDT 10:18 PM EDT
Moon 5:18 AM EDT (8/5) 7:31 PM EDT (8/5)
Length of Visible Light 15h 07m
Length of Day
14h 07m
Waning Crescent, 1% of the Moon is Illuminated
Aug 5
Waning Crescent
Aug 6
New
Aug 14
First Quarter
Aug 20
Full
Aug 28
Last Quarter

Hourly Weather History & Observations

Time (EDT) Temp. Dew Point Humidity Pressure Visibility Wind Dir Wind Speed Gust Speed Precip Events Conditions
12:53 AM 60.1 °F 54.0 °F 80% 30.12 in 10.0 mi NNE 3.5 mph - N/A   Clear
1:53 AM 57.9 °F 53.1 °F 84% 30.12 in 10.0 mi NNE 3.5 mph - N/A   Clear
2:53 AM 55.0 °F 53.1 °F 93% 30.13 in 10.0 mi Calm Calm - N/A   Clear
3:53 AM 55.0 °F 54.0 °F 96% 30.12 in 9.0 mi Calm Calm - N/A   Clear
4:53 AM 54.0 °F 54.0 °F 100% 30.13 in 3.0 mi Calm Calm - N/A   Clear
5:00 AM 55.4 °F 53.6 °F 94% 30.13 in 2.5 mi Calm Calm - N/A   Partly Cloudy
5:05 AM 53.6 °F 53.6 °F 100% 30.13 in 1.0 mi Calm Calm - N/A   Mist
5:08 AM 53.6 °F 53.6 °F 100% 30.13 in 0.5 mi Calm Calm - N/A Fog Fog
5:41 AM 53.6 °F 51.8 °F 94% 30.13 in 1.0 mi Calm Calm - N/A   Mist
5:46 AM 53.6 °F 53.6 °F 100% 30.13 in 0.5 mi South 3.5 mph - N/A Fog Fog
5:53 AM 52.0 °F 52.0 °F 100% 30.14 in 0.2 mi Calm Calm - N/A Fog Fog
6:00 AM 51.8 °F 51.8 °F 100% 30.14 in 0.2 mi Calm Calm - N/A Fog Fog
6:53 AM 51.1 °F 50.0 °F 96% 30.14 in 0.2 mi Calm Calm - N/A Fog Fog
7:53 AM 53.1 °F 53.1 °F 100% 30.15 in 0.2 mi Calm Calm - N/A Fog Fog
8:11 AM 55.4 °F 55.4 °F 100% 30.15 in 1.0 mi Calm Calm - 0.01 in   Mist
8:21 AM 55.4 °F 55.4 °F 100% 30.15 in 0.5 mi Calm Calm - 0.01 in Fog Fog
8:30 AM 55.4 °F 55.4 °F 100% 30.15 in 0.2 mi Calm Calm - 0.01 in Fog Fog
8:53 AM 57.0 °F 57.0 °F 100% 30.16 in 0.8 mi Calm Calm - 0.01 in   Mist
8:56 AM 57.2 °F 57.2 °F 100% 30.15 in 3.0 mi Calm Calm - N/A   Mostly Cloudy
9:05 AM 57.2 °F 57.2 °F 100% 30.15 in 10.0 mi Calm Calm - N/A   Scattered Clouds
9:53 AM 64.0 °F 57.0 °F 78% 30.15 in 10.0 mi Calm Calm - N/A   Clear
10:53 AM 66.9 °F 55.0 °F 66% 30.15 in 10.0 mi Variable 3.5 mph - N/A   Clear
11:53 AM 66.0 °F 55.0 °F 68% 30.14 in 10.0 mi WNW 3.5 mph - N/A   Mostly Cloudy
12:53 PM 70.0 °F 52.0 °F 53% 30.12 in 10.0 mi Variable 4.6 mph - N/A   Partly Cloudy
1:53 PM 73.0 °F 51.1 °F 46% 30.09 in 10.0 mi WNW 4.6 mph - N/A   Mostly Cloudy
2:53 PM 73.9 °F 52.0 °F 46% 30.07 in 10.0 mi Variable 3.5 mph - N/A   Scattered Clouds
3:53 PM 72.0 °F 51.1 °F 48% 30.07 in 10.0 mi SSW 4.6 mph - N/A   Scattered Clouds
4:53 PM 71.1 °F 50.0 °F 47% 30.06 in 10.0 mi Calm Calm - N/A   Partly Cloudy
5:53 PM 70.0 °F 55.0 °F 59% 30.08 in 10.0 mi North 3.5 mph - N/A   Clear
6:53 PM 69.1 °F 55.0 °F 61% 30.06 in 10.0 mi ENE 3.5 mph - N/A   Clear
7:53 PM 66.9 °F 57.0 °F 70% 30.06 in 10.0 mi East 3.5 mph - N/A   Clear
8:53 PM 64.9 °F 55.0 °F 70% 30.05 in 10.0 mi East 5.8 mph - N/A   Clear
9:53 PM 63.0 °F 57.0 °F 81% 30.05 in 10.0 mi ESE 4.6 mph - N/A   Clear
10:53 PM 64.0 °F 54.0 °F 70% 30.04 in 10.0 mi Calm Calm - N/A   Clear
11:53 PM 63.0 °F 54.0 °F 72% 30.04 in 10.0 mi Calm Calm - N/A   Clear